Погода в Янчукане

Россия / Республика Бурятия     56°14′57″N   112°47′52″E
темп.,
°C
ветер,
м/с
пор.,
м/с
влажн.,
%
обл.,
%
осадки,
мм/ч
давл.,
гПа
погр.,
м
5 декабря, вс
вс523:00−10ю1197100 1.5 101138
02:00−10з2397100 3.6 101295
05:00−11з1296100 1.7 101390
08:00−11зюз2297100 2.7 101464
11:00−11зюз2496100 1.1 1015178
14:00−11з3497100 1.8 1016229
17:00−15з22100100 0.1 102035
20:00−14з3489100 0.6 102281
6 декабря, пн
пн623:00−14з3597100 0.6 1022229
02:00−14зюз3497100 1.8 1022159
05:00−14юз2297100 1.0 102084
08:00−14ююз2296100 2.1 101867
11:00−12зюз2395100 1.1 1017213
14:00−12з1195100 2.5 1016138
17:00−12ююз1196100 1.2 101846
20:00−12ю1196100 1.9 101817
7 декабря, вт
вт723:00−11ююв1196100 0.9 101824
02:00−10юз1196100 2.2 101839
05:00−11юз2296100 0.8 101950
08:00−11юз1296100 1.6 102046
11:00−9з1295100 0.8 1021109
14:00−9зюз1194100 1.3 1021101
17:00−13вюв229161 0.1 102310
20:00−13вюв228599 0.1 102211
8 декабря, ср
ср823:00−14юв228180 0.0 102110
02:00−14вюв228190 0.0 102011
05:00−15вюв2281100 0.0 101911
08:00−12юв1183100 0.0 101810
11:00−10зсз0183100 0.0 101747
14:00−9зюз1194100 0.6 101796
17:00−10зюз2297100 1.8 101853
20:00−12ссз2297100 3.1 102083
9 декабря, чт
чт923:00−16ссв1195100 0.9 102312
02:00−16зсз1198100 1.4 102652
05:00−17з2298100 0.8 102850
08:00−19зюз1199100 1.4 103129
11:00−18зюз2294100 0.4 1033233
14:00−18з1193100 0.7 1034225
17:00−21ююв1198100 0.2 10369
20:00−22юв2297100 0.3 103810